User: anonymous   Login
Location: B�hl
(48.6968°N, 8.1352°E)
Time: 19:36:02
(UTC+00:00)
Language:

Cosmos 990 Rocket - Orbit

View from above orbital plane
View from above orbital plane
View from above satellite
View from above satellite

Ground track
Ground track

The orbit data is extracted from the following two-line orbital elements,

1 10677U 78019B   21136.53481291 -.00000002  00000-0  77601-5 0  9991
2 10677  74.0375 180.2897 0016561 263.6843  96.2426 14.40179594267979
Epoch (UTC): 16 May 2021 12:50:07
Eccentricity: 0.0016561
inclination: 74.0375°
perigee height: 746 km
apogee height: 770 km
right ascension of ascending node: 180.2897°
argument of perigee: 263.6843°
revolutions per day: 14.40179594
mean anomaly at epoch: 96.2426°
orbit number at epoch: 26797

The dashed part of the orbit path shows where the satellite is in the earth's shadow,  

DLR